Powrót do katalogu

DELTA 1 DEB

AktywnyPO
NORAD 21441·DEBRIS·🇺🇸 United States

Wystrzelony Jun 12, 1975 z Vandenberg Space Force Base

Loading…

Następne Przeloty (najbliższe 24 godziny)

TLE

ŚwieżeSource: Space-Track

Epoka: Sep 14, 2026, 06:17 UTC

1 21441U 75052DZ  26257.26204773  .00000102  00000-0  47594-3 0  9999
2 21441  99.7234   4.6029 0302674 309.8730  74.6970 12.84269790657011

Śledź DELTA 1 DEB w czasie rzeczywistym z AllMySat

Download on the App Store